[[{"header":{"parameterUnit":"m.s-1","parameterCategory":1,"la1":30.2991,"la2":30.254,"lo1":-89.0895,"lo2":-89.0444,"dy":0.0017,"dx":0.0017,"nx":28,"ny":28,"refTime":"2023-08-10T09:00:00:Z","depth":0,"parameterNumber":2,"parameterNumberName":"U-component_of_WINDS"},"data":[0,0,0,0,0,0,0,0,0,0,0,0,0,0,0,0,0,0,0,0,0,0,0,0,0,0,0,0,0,0,0,0,0,0,0,0,0,0,0,0,0,0,0,0,0,0,0,0,0,0,0,0,0,0,0,0,0,0,3.324,3.3241,0,3.3315,3.3316,3.3317,3.3257,3.3255,3.3252,3.325,3.3325,3.3329,3.3334,0,0,0,0,0,0,0,0,0,0,0,0,0,3.3041,3.3045,3.324,3.3241,3.3242,3.3315,3.3316,3.3317,3.3258,3.3254,3.3251,3.3248,3.3324,3.3329,3.3334,0,0,0,0,0,0,0,0,0,0,0,0,0,3.3123,3.3047,3.324,3.3221,3.322,3.3315,3.3316,3.3317,3.3258,3.3254,3.3251,3.3247,3.3322,3.3328,3.3335,3.3452,0,0,3.3355,3.3358,0,0,0,0,0,0,0,0,3.3119,3.313,3.3223,3.3223,3.3222,3.3273,3.3274,3.3362,3.3259,3.3244,3.325,3.3245,3.3311,3.3318,3.334,3.3455,3.3458,3.3355,3.3359,3.3362,3.3364,0,0,0,0,0,0,0,3.3113,3.3127,3.327,3.3224,3.3224,3.3208,3.3215,3.329,3.3298,3.3245,3.3241,3.325,3.331,3.3334,3.3342,3.3459,3.3355,3.3361,3.3365,3.3368,3.3669,3.3673,0,0,0,0,0,0,3.311,3.3123,3.3267,3.3272,3.316,3.3214,3.3223,3.326,3.3297,3.3299,3.3254,3.3247,3.3325,3.3334,3.3344,3.348,3.3362,3.3368,3.3372,3.3665,3.367,3.3674,0,0,0,0,0,0,3.3106,3.3123,3.3264,3.3196,3.3213,3.3222,3.3265,3.3264,3.3288,3.3303,3.3304,3.3278,3.3322,3.3335,3.3424,3.3482,3.3371,3.3377,3.366,3.3667,3.3672,3.3754,0,0,0,0,0,0,3.31,3.3122,3.3168,3.3198,3.3217,3.3345,3.3268,3.3268,3.33,3.3292,3.3326,3.3328,3.332,3.3415,3.3431,3.3489,3.3382,3.3655,3.3663,3.367,3.3747,3.3763,3.3776,0,0,0,0,0,3.3093,3.3188,3.317,3.3188,3.3274,3.3348,3.3359,3.3349,3.3305,3.335,3.3359,3.3327,3.3473,3.3425,3.3442,3.3503,3.3651,3.3661,3.367,3.374,3.3759,3.3776,0,0,0,0,0,0,3.3165,3.3192,3.3172,3.328,3.3312,3.3338,3.3394,3.337,3.3415,3.3406,3.3391,3.3399,3.3492,3.3507,3.3452,3.3615,3.3555,3.3568,3.3602,3.3621,3.3636,3.3629,3.3388,0,0,0,0,0,3.3193,3.3252,3.3273,3.3366,3.3383,3.3386,3.3418,3.3407,3.3439,3.3453,3.3468,3.3501,3.3553,3.3588,3.3638,3.3749,3.3753,3.3799,3.3814,3.3826,3.3837,3.3892,3.3912,3.3704,3.3704,3.3704,0,0,3.3253,3.3275,3.3313,3.3381,3.3404,3.3463,3.3398,3.3465,3.3508,3.3463,3.3547,3.356,3.3594,3.3694,3.3739,3.3709,3.3895,3.3838,3.3847,3.3851,3.3904,3.3923,3.3941,3.3711,3.371,3.3709,0,0,3.339,3.3415,3.3493,3.3517,3.3554,3.3555,3.3573,3.3603,3.3609,3.3694,3.366,3.3711,3.3803,3.3828,3.3853,3.3997,3.3967,3.4014,3.409,3.4145,3.4161,3.4175,3.4223,3.4241,3.4025,3.4025,3.4025,0,3.3459,3.3548,3.3536,3.3604,3.3633,3.3595,3.3673,3.3697,3.3748,3.3768,3.3734,3.3847,3.3868,3.3971,3.4005,3.4028,3.4047,3.4009,3.416,3.4174,3.4187,3.4233,3.4251,3.403,3.4029,3.4029,3.4028,0,3.3629,3.3691,3.375,3.3799,3.3835,3.3908,3.3905,3.3943,3.3928,3.3932,3.4017,3.4041,3.4092,3.4117,3.4104,3.4217,3.4197,3.4162,3.41,3.4212,3.4254,3.4272,3.4037,3.4035,3.4034,3.4033,0,0,3.3814,3.3854,3.3875,3.3895,3.3931,3.3978,3.4048,3.4099,3.413,3.4166,3.4222,3.43,3.4267,3.4295,3.4284,3.4332,3.444,3.4291,3.4291,3.4315,3.4562,3.4586,3.4606,3.4422,3.4425,3.4428,3.4558,0,3.395,3.4072,3.4062,3.4176,3.4231,3.4195,3.4255,3.4282,3.4288,3.4334,3.434,3.4394,3.4348,3.4364,3.441,3.4417,3.4489,3.4408,3.4471,3.4474,3.4461,3.4629,3.4655,3.4777,3.4575,3.4578,3.458,0,3.4126,3.4166,3.4286,3.431,3.4333,3.4388,3.4431,3.4477,3.4507,3.4507,3.4537,3.4518,3.4585,3.4524,3.4616,3.4561,3.4586,3.4593,3.4597,3.4601,3.4532,3.4634,3.4816,3.4833,3.4606,3.4604,3.4602,0,3.4244,3.4329,3.441,3.4429,3.4461,3.4499,3.4514,3.454,3.457,3.4609,3.4627,3.4673,3.4698,3.4733,3.4725,3.4682,3.4817,3.4756,3.4817,3.4817,3.4845,3.4843,3.5031,3.4867,3.4867,3.4866,3.4866,0,3.4395,3.4469,3.4463,3.4513,3.4594,3.4581,3.4661,3.4671,3.4694,3.4743,3.4715,3.4762,3.4751,3.4797,3.4791,3.4866,3.4878,3.4878,3.4875,3.4879,3.4878,3.4893,3.4883,3.4871,3.487,3.4869,3.4868,0,3.454,3.454,3.4626,3.4648,3.4655,3.4713,3.4732,3.4778,3.478,3.4843,3.4857,3.4861,3.4913,3.4909,3.4969,3.4965,3.5056,3.5045,3.5046,3.5042,3.5102,3.5095,3.5303,3.5328,3.5151,3.5153,3.5155,0,3.4636,3.4691,3.4719,3.475,3.4767,3.4819,3.4848,3.4837,3.4869,3.4906,3.4946,3.4996,3.5035,3.512,3.5127,3.5172,3.516,3.5229,3.5166,3.5167,3.5156,3.5152,3.5156,3.5241,3.5243,3.5245,3.5246,0,3.4804,3.48,3.4845,3.4889,3.4925,3.4959,3.499,3.5017,3.5009,3.5046,3.5099,3.5129,3.5189,3.5237,3.5279,3.5293,3.5267,3.5266,3.5282,3.5285,3.5282,3.528,3.5076,3.5261,3.5259,3.5258,3.5258,3.5257,3.4924,3.497,3.4996,3.5046,3.5068,3.5097,3.514,3.5147,3.5192,3.5239,3.523,3.5288,3.5313,3.5367,3.5385,3.5429,3.5404,3.5428,3.5433,3.5438,3.5443,3.5277,3.5437,3.5437,3.5436,3.5436,3.5436,0,3.5088,3.5102,3.5148,3.5191,3.523,3.5203,3.5235,3.5269,3.5321,3.5347,3.5385,3.5444,3.5491,3.5501,3.5545,3.5578,3.5567,3.559,3.5586,3.5588,3.5465,3.5446,3.5598,3.5597,3.5597,3.5597,3.5597,3.5597,3.5177,3.5252,3.5251,3.5336,3.535,3.5407,3.5427,3.5453,3.5473,3.554,3.5578,3.5585,3.5604,3.5648,3.5689,3.569,3.5706,3.5733,3.573,3.5614,3.5598,3.5582,3.5563,3.5737,3.5738,3.5849,3.585,3.585]},{"header":{"parameterUnit":"m.s-1","parameterCategory":1,"la1":30.2991,"la2":30.254,"lo1":-89.0895,"lo2":-89.0444,"dy":0.0017,"dx":0.0017,"nx":28,"ny":28,"refTime":"2023-08-10T09:00:00:Z","depth":0,"parameterNumber":3,"parameterNumberName":"V-component_of_WINDS"},"data":[0,0,0,0,0,0,0,0,0,0,0,0,0,0,0,0,0,0,0,0,0,0,0,0,0,0,0,0,0,0,0,0,0,0,0,0,0,0,0,0,0,0,0,0,0,0,0,0,0,0,0,0,0,0,0,0,0,0,4.8221,4.8222,0,4.8344,4.8345,4.8347,4.8314,4.8311,4.8309,4.8306,4.843,4.8435,4.8441,0,0,0,0,0,0,0,0,0,0,0,0,0,4.7953,4.7958,4.8221,4.8223,4.8224,4.8344,4.8345,4.8347,4.8314,4.8311,4.8308,4.8305,4.8428,4.8434,4.8441,0,0,0,0,0,0,0,0,0,0,0,0,0,4.8072,4.796,4.8221,4.8222,4.8223,4.8343,4.8346,4.8348,4.8315,4.8311,4.8307,4.8304,4.8426,4.8434,4.8442,4.8568,0,0,4.8468,4.8471,0,0,0,0,0,0,0,0,4.8066,4.8082,4.822,4.8222,4.8224,4.831,4.8296,4.8421,4.8315,4.828,4.8306,4.8302,4.8393,4.8403,4.8435,4.8573,4.8579,4.8468,4.8473,4.8477,4.8479,0,0,0,0,0,0,0,4.8057,4.8077,4.827,4.8222,4.8225,4.8215,4.8228,4.832,4.8355,4.8283,4.8281,4.8296,4.8393,4.8427,4.8437,4.8581,4.8468,4.8476,4.8481,4.8484,4.8826,4.883,0,0,0,0,0,0,4.8048,4.807,4.8266,4.8273,4.8134,4.8223,4.8237,4.8286,4.8354,4.8361,4.8299,4.8294,4.8414,4.8427,4.8441,4.8591,4.8477,4.8485,4.849,4.8822,4.8827,4.8831,0,0,0,0,0,0,4.8043,4.8066,4.8261,4.8171,4.8195,4.8231,4.8286,4.829,4.8324,4.8366,4.8372,4.8327,4.8412,4.843,4.8536,4.8595,4.8489,4.8496,4.8817,4.8823,4.8829,4.8893,0,0,0,0,0,0,4.8035,4.8064,4.8113,4.8173,4.82,4.8355,4.829,4.8295,4.8339,4.8333,4.8394,4.8401,4.841,4.8524,4.8544,4.8605,4.8503,4.8812,4.882,4.8827,4.8886,4.8901,4.8913,0,0,0,0,0,4.8026,4.8127,4.8116,4.814,4.8263,4.8358,4.8374,4.8383,4.8344,4.8393,4.8419,4.8399,4.8585,4.8535,4.8558,4.8622,4.8808,4.8818,4.8826,4.888,4.8898,4.8913,0,0,0,0,0,0,4.8073,4.8134,4.8124,4.8247,4.8298,4.8353,4.8415,4.8402,4.8465,4.8457,4.8465,4.8479,4.8587,4.8615,4.8558,4.8745,4.8691,4.8705,4.8723,4.8741,4.8754,4.8745,4.851,0,0,0,0,0,4.8098,4.8172,4.8221,4.8325,4.8351,4.8379,4.8421,4.8423,4.8476,4.8497,4.8532,4.8583,4.8652,4.8698,4.8765,4.889,4.8901,4.8945,4.8958,4.8969,4.8981,4.9047,4.9066,4.8861,4.8861,4.8861,0,0,4.815,4.8193,4.8239,4.8335,4.8375,4.845,4.8397,4.8479,4.8534,4.8509,4.8612,4.8639,4.8696,4.8812,4.8864,4.8838,4.904,4.8981,4.8989,4.8995,4.9058,4.9078,4.9095,4.8867,4.8866,4.8865,0,0,4.8283,4.8324,4.8414,4.8454,4.8515,4.8532,4.8554,4.8611,4.8628,4.8731,4.8713,4.8778,4.8899,4.894,4.8976,4.9122,4.9105,4.9144,4.9215,4.9279,4.9295,4.931,4.936,4.9378,4.9156,4.9156,4.9156,0,4.834,4.8453,4.8461,4.8544,4.8586,4.8568,4.8658,4.8697,4.8776,4.8804,4.8774,4.8924,4.8961,4.9085,4.912,4.9151,4.9175,4.9137,4.9292,4.9307,4.932,4.9369,4.9388,4.916,4.916,4.9159,4.9159,0,4.8518,4.8597,4.8662,4.8739,4.8789,4.8875,4.8895,4.8944,4.8941,4.8961,4.9065,4.9109,4.9183,4.9213,4.9212,4.9337,4.9318,4.929,4.9235,4.9344,4.9389,4.9408,4.9166,4.9164,4.9163,4.9162,0,0,4.8686,4.8765,4.8789,4.8822,4.8887,4.8947,4.9032,4.9105,4.9146,4.92,4.927,4.9372,4.9346,4.9387,4.939,4.9447,4.9557,4.9411,4.9413,4.9436,4.9695,4.9715,4.9736,4.9546,4.955,4.9553,4.9689,0,4.8823,4.8972,4.8981,4.9116,4.9187,4.917,4.9243,4.9289,4.931,4.9372,4.9394,4.9466,4.9427,4.9452,4.9507,4.9532,4.9609,4.9523,4.961,4.9613,4.9595,4.976,4.9782,4.9909,4.9707,4.971,4.9713,0,4.9003,4.9063,4.9205,4.9258,4.9288,4.9354,4.942,4.9481,4.9533,4.9543,4.9589,4.9584,4.9668,4.9611,4.9726,4.9667,4.9703,4.9721,4.9726,4.9733,4.9669,4.9771,4.9949,4.9968,4.9741,4.9739,4.9737,0,4.9108,4.9225,4.9324,4.9354,4.9419,4.9465,4.9494,4.9542,4.9585,4.9642,4.967,4.9737,4.9773,4.9824,4.9836,4.9794,4.9951,4.9895,4.9961,4.9961,4.9994,4.9992,5.018,5.002,5.0019,5.0019,5.0019,0,4.926,4.9347,4.9372,4.9433,4.9529,4.9538,4.9633,4.9658,4.9701,4.9766,4.9755,4.9815,4.9828,4.989,4.99,4.9993,5.001,5.002,5.0021,5.0021,5.0019,5.0044,5.0035,5.0024,5.0023,5.0022,5.0021,0,4.9394,4.9415,4.9521,4.9574,4.9588,4.9657,4.9701,4.9758,4.9777,4.9859,4.9878,4.9907,4.998,4.9997,5.0084,5.0091,5.02,5.0194,5.0183,5.0182,5.0247,5.024,5.0456,5.0484,5.0307,5.0308,5.031,0,4.9489,4.9555,4.9614,4.9657,4.9688,4.9757,4.98,4.9811,4.9856,4.9919,4.9969,5.004,5.0098,5.0215,5.0243,5.0309,5.0303,5.0375,5.0313,5.031,5.0303,5.0298,5.0304,5.0386,5.0388,5.039,5.0391,0,4.9655,4.9661,4.9725,4.9791,4.9843,4.9896,4.9946,4.9982,4.9999,5.005,5.0125,5.017,5.0258,5.0328,5.0394,5.0422,5.0409,5.041,5.0428,5.0428,5.0418,5.0423,5.0214,5.0405,5.0403,5.0402,5.0402,5.0401,4.9771,4.9829,4.9879,4.9949,4.9988,5.0035,5.0091,5.0116,5.0179,5.0252,5.0254,5.0335,5.0383,5.047,5.0502,5.0564,5.0542,5.0569,5.0576,5.0582,5.0587,5.0409,5.0576,5.0576,5.0576,5.0575,5.0575,0,4.9935,4.9966,5.0031,5.0101,5.0156,5.0139,5.0194,5.024,5.0312,5.0358,5.0415,5.05,5.0568,5.0601,5.0668,5.0711,5.0707,5.0728,5.0725,5.0731,5.0604,5.0581,5.0731,5.0731,5.0731,5.0731,5.073,5.073,5.0027,5.0122,5.0134,5.0248,5.0278,5.0358,5.039,5.0433,5.0469,5.0565,5.0621,5.0643,5.0683,5.0753,5.0814,5.0821,5.0846,5.087,5.0875,5.0756,5.074,5.0725,5.0703,5.0876,5.0876,5.0997,5.0998,5.0999]}]]